Location: DARK SKY Beskydy - Park tmavé oblohy, www.darkskybeskydy.cz
(49.4926°N, 18.5016°E)
Time: 15:23:00
(UTC+02:00)

ACS3 Solar Sail - Pass Details

Date: 23 June 2024
Orbit: 992 x 1023 km, 97.4° (Epoch: 11 July)

Event Time Altitude Azimuth Distance (km) Brightness Sun altitude
Exits shadow 22:05:06 - 165° (SSE) 2,963 6.7 -8.6°
Reaches altitude 10° 22:05:38 10° 165° (SSE) 2,759 6.6 -8.6°
Maximum altitude 22:11:52 89° 247° (WSW) 1,002 4.9 -9.2°
Drops below altitude 10° 22:18:07 10° 347° (NNW) 2,767 8.4 -9.8°
Sets 22:20:37 0° 348° (NNW) 3,720 9.3 -10.0°
